Time,TemperatureF,DewpointF,PressureIn,WindDirection,WindDirectionDegrees,WindSpeedMPH,WindSpeedGustMPH,Humidity,HourlyPrecipIn,Conditions,Clouds,dailyrainin,SoftwareType,DateUTC
2013-02-04 00:00:00,26.8,14.8,29.71,WSW,248,5.4,6.0,60,0.00,,,0.00,WUHU216HW,2013-02-04 05:00:00,
2013-02-04 00:02:00,26.8,15.1,29.71,WNW,293,0.0,6.0,61,0.00,,,0.00,WUHU216HW,2013-02-04 05:02:00,
2013-02-04 00:03:00,26.8,15.1,29.71,North,0,1.1,5.4,61,0.00,,,0.00,WUHU216HW,2013-02-04 05:03:00,
2013-02-04 00:08:00,26.6,14.9,29.71,SW,225,0.7,5.6,61,0.00,,,0.00,WUHU216HW,2013-02-04 05:08:00,
2013-02-04 00:13:00,26.6,14.9,29.71,East,90,1.8,5.6,61,0.00,,,0.00,WUHU216HW,2013-02-04 05:13:00,
2013-02-04 00:18:00,26.5,14.8,29.71,NW,315,1.3,2.9,61,0.00,,,0.00,WUHU216HW,2013-02-04 05:18:00,
2013-02-04 00:23:00,26.5,15.1,29.72,NW,315,1.1,2.7,62,0.00,,,0.00,WUHU216HW,2013-02-04 05:23:00,
2013-02-04 00:28:00,26.3,14.9,29.72,WNW,293,0.4,3.6,62,0.00,,,0.00,WUHU216HW,2013-02-04 05:28:00,
2013-02-04 00:33:00,26.3,14.2,29.72,WNW,293,3.1,4.0,60,0.00,,,0.00,WUHU216HW,2013-02-04 05:33:00,
2013-02-04 00:38:00,26.3,14.6,29.72,NW,315,1.8,4.0,61,0.00,,,0.00,WUHU216HW,2013-02-04 05:38:00,
2013-02-04 00:43:00,25.9,13.5,29.72,WSW,248,2.9,4.3,59,0.00,,,0.00,WUHU216HW,2013-02-04 05:43:00,
2013-02-04 00:48:00,25.7,13.3,29.72,NNW,338,1.1,4.7,59,0.00,,,0.00,WUHU216HW,2013-02-04 05:48:00,
2013-02-04 00:53:00,25.7,13.8,29.72,North,0,0.4,4.7,60,0.00,,,0.00,WUHU216HW,2013-02-04 05:53:00,
2013-02-04 00:58:00,25.6,13.2,29.72,WNW,293,2.9,6.3,59,0.00,,,0.00,WUHU216HW,2013-02-04 05:58:00,
2013-02-04 01:03:00,25.4,13.4,29.72,SSE,158,1.1,6.3,60,0.00,,,0.00,WUHU216HW,2013-02-04 06:03:00,
2013-02-04 01:08:00,25.4,13.1,29.72,NW,315,2.5,4.0,59,0.00,,,0.00,WUHU216HW,2013-02-04 06:08:00,
2013-02-04 01:13:00,25.2,12.9,29.72,NNW,338,1.1,4.5,59,0.00,,,0.00,WUHU216HW,2013-02-04 06:13:00,
2013-02-04 01:18:00,25.0,12.7,29.72,WNW,293,0.2,4.5,59,0.00,,,0.00,WUHU216HW,2013-02-04 06:18:00,
2013-02-04 01:23:00,25.0,13.2,29.72,East,90,2.0,2.9,60,0.00,,,0.00,WUHU216HW,2013-02-04 06:23:00,
2013-02-04 01:28:00,25.0,12.7,29.73,NNW,338,4.0,4.0,59,0.00,,,0.00,WUHU216HW,2013-02-04 06:28:00,
2013-02-04 01:33:00,24.8,12.5,29.73,NNW,338,1.8,5.1,59,0.00,,,0.00,WUHU216HW,2013-02-04 06:33:00,
2013-02-04 01:38:00,24.8,12.5,29.73,NE,45,0.4,5.1,59,0.00,,,0.00,WUHU216HW,2013-02-04 06:38:00,
2013-02-04 01:43:00,24.8,13.0,29.72,NW,315,1.8,3.4,60,0.00,,,0.00,WUHU216HW,2013-02-04 06:43:00,
2013-02-04 01:48:00,24.8,13.0,29.73,SSE,158,5.4,5.4,60,0.00,,,0.00,WUHU216HW,2013-02-04 06:48:00,
2013-02-04 01:53:00,24.7,12.3,29.73,NW,315,0.2,5.4,59,0.00,,,0.00,WUHU216HW,2013-02-04 06:53:00,
2013-02-04 01:58:00,24.7,12.8,29.72,NNW,338,1.3,3.6,60,0.00,,,0.00,WUHU216HW,2013-02-04 06:58:00,
2013-02-04 02:03:00,24.7,12.8,29.73,ENE,68,0.9,2.9,60,0.00,,,0.00,WUHU216HW,2013-02-04 07:03:00,
2013-02-04 02:08:00,24.7,12.3,29.73,SSE,158,0.2,3.8,59,0.00,,,0.00,WUHU216HW,2013-02-04 07:08:00,
2013-02-04 02:13:00,24.7,12.8,29.73,SW,225,0.4,5.1,60,0.00,,,0.00,WUHU216HW,2013-02-04 07:13:00,
2013-02-04 02:18:00,24.7,12.8,29.72,NNW,338,1.8,5.1,60,0.00,,,0.00,WUHU216HW,2013-02-04 07:18:00,
2013-02-04 02:23:00,24.7,12.8,29.73,ESE,113,0.4,4.9,60,0.00,,,0.00,WUHU216HW,2013-02-04 07:23:00,
2013-02-04 02:28:00,24.7,12.8,29.73,ESE,113,0.0,4.9,60,0.00,,,0.00,WUHU216HW,2013-02-04 07:28:00,
2013-02-04 02:33:00,24.7,12.8,29.73,NW,315,2.2,2.7,60,0.00,,,0.00,WUHU216HW,2013-02-04 07:33:00,
2013-02-04 02:38:00,24.7,12.8,29.73,WNW,293,0.2,3.4,60,0.00,,,0.00,WUHU216HW,2013-02-04 07:38:00,
2013-02-04 02:43:00,24.7,13.2,29.73,NW,315,0.2,3.4,61,0.00,,,0.00,WUHU216HW,2013-02-04 07:43:00,
2013-02-04 02:48:00,24.7,13.2,29.74,WSW,248,0.0,2.0,61,0.00,,,0.00,WUHU216HW,2013-02-04 07:48:00,
2013-02-04 02:53:00,24.7,13.2,29.73,West,270,1.8,6.3,61,0.00,,,0.00,WUHU216HW,2013-02-04 07:53:00,
2013-02-04 02:58:00,24.8,13.3,29.74,WNW,293,2.5,6.3,61,0.00,,,0.00,WUHU216HW,2013-02-04 07:58:00,
2013-02-04 03:03:00,24.7,13.2,29.74,NE,45,1.8,5.1,61,0.00,,,0.00,WUHU216HW,2013-02-04 08:03:00,
2013-02-04 03:08:00,24.8,13.0,29.74,SSW,203,1.8,5.1,60,0.00,,,0.00,WUHU216HW,2013-02-04 08:08:00,
2013-02-04 03:13:00,24.8,13.0,29.74,ENE,68,0.9,5.1,60,0.00,,,0.00,WUHU216HW,2013-02-04 08:13:00,
2013-02-04 03:18:00,24.8,13.0,29.73,SSE,158,0.0,5.1,60,0.00,,,0.00,WUHU216HW,2013-02-04 08:18:00,
2013-02-04 03:23:00,24.8,13.3,29.74,SSE,158,0.4,1.3,61,0.00,,,0.00,WUHU216HW,2013-02-04 08:23:00,
2013-02-04 03:28:00,24.8,13.0,29.73,NW,315,1.1,4.0,60,0.00,,,0.00,WUHU216HW,2013-02-04 08:28:00,
2013-02-04 03:33:00,24.8,13.3,29.74,WNW,293,2.9,4.0,61,0.00,,,0.00,WUHU216HW,2013-02-04 08:33:00,
2013-02-04 03:38:00,24.7,12.3,29.74,NNW,338,3.4,4.9,59,0.00,,,0.00,WUHU216HW,2013-02-04 08:38:00,
2013-02-04 03:43:00,24.8,13.0,29.74,NE,45,0.2,4.9,60,0.00,,,0.00,WUHU216HW,2013-02-04 08:43:00,
2013-02-04 03:48:00,24.8,13.0,29.73,NNW,338,0.2,5.1,60,0.00,,,0.00,WUHU216HW,2013-02-04 08:48:00,
2013-02-04 03:53:00,24.8,13.0,29.74,WSW,248,1.8,5.1,60,0.00,,,0.00,WUHU216HW,2013-02-04 08:53:00,
2013-02-04 03:58:00,24.8,13.0,29.73,NNW,338,2.5,4.3,60,0.00,,,0.00,WUHU216HW,2013-02-04 08:58:00,
2013-02-04 04:03:00,24.8,13.0,29.74,WSW,248,0.4,4.5,60,0.00,,,0.00,WUHU216HW,2013-02-04 09:03:00,
2013-02-04 04:08:00,24.8,13.0,29.74,NNE,23,0.9,4.5,60,0.00,,,0.00,WUHU216HW,2013-02-04 09:08:00,
2013-02-04 04:13:00,24.8,13.3,29.74,WSW,248,0.9,3.4,61,0.00,,,0.00,WUHU216HW,2013-02-04 09:13:00,
2013-02-04 04:18:00,24.8,13.3,29.74,West,270,4.0,4.0,61,0.00,,,0.00,WUHU216HW,2013-02-04 09:18:00,
2013-02-04 04:23:00,24.8,13.0,29.74,SW,225,1.3,5.4,60,0.00,,,0.00,WUHU216HW,2013-02-04 09:23:00,
2013-02-04 04:28:00,24.8,13.0,29.73,NW,315,0.9,5.4,60,0.00,,,0.00,WUHU216HW,2013-02-04 09:28:00,
2013-02-04 04:33:00,24.8,13.0,29.73,NW,315,0.4,4.7,60,0.00,,,0.00,WUHU216HW,2013-02-04 09:33:00,
2013-02-04 04:38:00,24.7,13.2,29.74,North,0,5.4,5.4,61,0.00,,,0.00,WUHU216HW,2013-02-04 09:38:00,
2013-02-04 04:43:00,24.7,13.2,29.74,NNW,338,0.2,5.4,61,0.00,,,0.00,WUHU216HW,2013-02-04 09:43:00,
2013-02-04 04:48:00,24.7,13.2,29.73,NNW,338,2.0,5.4,61,0.00,,,0.00,WUHU216HW,2013-02-04 09:48:00,
2013-02-04 04:53:00,24.7,13.2,29.74,NNW,338,1.1,3.4,61,0.00,,,0.00,WUHU216HW,2013-02-04 09:53:00,
2013-02-04 04:58:00,24.7,13.2,29.74,NNW,338,0.2,3.4,61,0.00,,,0.00,WUHU216HW,2013-02-04 09:58:00,
2013-02-04 05:03:00,24.7,13.2,29.74,NW,315,1.1,2.2,61,0.00,,,0.00,WUHU216HW,2013-02-04 10:03:00,
2013-02-04 05:08:00,24.7,13.2,29.74,ESE,113,0.0,5.1,61,0.00,,,0.00,WUHU216HW,2013-02-04 10:08:00,
2013-02-04 05:13:00,24.7,13.2,29.74,West,270,1.1,5.1,61,0.00,,,0.00,WUHU216HW,2013-02-04 10:13:00,
2013-02-04 05:18:00,24.7,13.2,29.74,NNW,338,1.1,1.8,61,0.00,,,0.00,WUHU216HW,2013-02-04 10:18:00,
2013-02-04 05:23:00,24.7,13.2,29.75,NE,45,0.2,2.2,61,0.00,,,0.00,WUHU216HW,2013-02-04 10:23:00,
2013-02-04 05:28:00,24.7,13.2,29.75,WNW,293,1.1,2.2,61,0.00,,,0.00,WUHU216HW,2013-02-04 10:28:00,
2013-02-04 05:33:00,24.7,13.2,29.75,WNW,293,2.7,4.7,61,0.00,,,0.00,WUHU216HW,2013-02-04 10:33:00,
2013-02-04 05:38:00,24.7,13.2,29.75,NW,315,0.4,4.7,61,0.00,,,0.00,WUHU216HW,2013-02-04 10:38:00,
2013-02-04 05:43:00,24.7,13.2,29.75,ESE,113,1.1,3.4,61,0.00,,,0.00,WUHU216HW,2013-02-04 10:43:00,
2013-02-04 05:48:00,24.7,13.2,29.75,NW,315,2.5,2.7,61,0.00,,,0.00,WUHU216HW,2013-02-04 10:48:00,
2013-02-04 05:53:00,24.8,13.3,29.75,North,0,0.0,2.7,61,0.00,,,0.00,WUHU216HW,2013-02-04 10:53:00,
2013-02-04 05:58:00,24.8,13.3,29.75,NW,315,0.2,2.5,61,0.00,,,0.00,WUHU216HW,2013-02-04 10:58:00,
2013-02-04 06:03:00,24.8,13.3,29.75,NW,315,0.9,3.6,61,0.00,,,0.00,WUHU216HW,2013-02-04 11:03:00,
2013-02-04 06:08:00,24.8,13.3,29.75,WSW,248,0.4,3.6,61,0.00,,,0.00,WUHU216HW,2013-02-04 11:08:00,
2013-02-04 06:13:00,24.8,13.3,29.76,SSW,203,0.4,3.4,61,0.00,,,0.00,WUHU216HW,2013-02-04 11:13:00,
2013-02-04 06:18:00,24.8,13.3,29.76,NNW,338,0.2,3.4,61,0.00,,,0.00,WUHU216HW,2013-02-04 11:18:00,
2013-02-04 06:23:00,24.8,13.3,29.76,North,0,0.4,1.8,61,0.00,,,0.00,WUHU216HW,2013-02-04 11:23:00,
2013-02-04 06:28:00,24.8,13.3,29.76,NW,315,0.4,1.6,61,0.00,,,0.00,WUHU216HW,2013-02-04 11:28:00,
2013-02-04 06:33:00,24.8,13.3,29.76,North,0,0.0,1.1,61,0.00,,,0.00,WUHU216HW,2013-02-04 11:33:00,
2013-02-04 06:38:00,24.8,13.3,29.76,NNW,338,0.0,2.2,61,0.00,,,0.00,WUHU216HW,2013-02-04 11:38:00,
2013-02-04 06:43:00,24.8,13.3,29.76,NW,315,0.2,2.2,61,0.00,,,0.00,WUHU216HW,2013-02-04 11:43:00,
2013-02-04 06:48:00,24.8,13.3,29.76,East,90,1.3,3.1,61,0.00,,,0.00,WUHU216HW,2013-02-04 11:48:00,
2013-02-04 06:53:00,24.8,13.3,29.77,NNW,338,0.0,3.1,61,0.00,,,0.00,WUHU216HW,2013-02-04 11:53:00,
2013-02-04 06:58:00,24.8,13.3,29.77,NW,315,0.9,2.7,61,0.00,,,0.00,WUHU216HW,2013-02-04 11:58:00,
2013-02-04 07:03:00,24.8,13.3,29.77,NW,315,1.8,2.7,61,0.00,,,0.00,WUHU216HW,2013-02-04 12:03:00,
2013-02-04 07:08:00,25.0,13.5,29.77,WNW,293,0.2,2.5,61,0.00,,,0.00,WUHU216HW,2013-02-04 12:08:00,
2013-02-04 07:13:00,25.0,13.5,29.77,WNW,293,0.4,2.5,61,0.00,,,0.00,WUHU216HW,2013-02-04 12:13:00,
2013-02-04 07:18:00,24.8,13.3,29.77,WNW,293,1.8,2.5,61,0.00,,,0.00,WUHU216HW,2013-02-04 12:18:00,
2013-02-04 07:23:00,24.8,13.7,29.78,WSW,248,1.1,2.5,62,0.00,,,0.00,WUHU216HW,2013-02-04 12:23:00,
2013-02-04 07:28:00,24.8,13.7,29.78,West,270,1.3,1.8,62,0.00,,,0.00,WUHU216HW,2013-02-04 12:28:00,
2013-02-04 07:33:00,24.7,13.5,29.78,West,270,0.4,1.6,62,0.00,,,0.00,WUHU216HW,2013-02-04 12:33:00,
2013-02-04 07:38:00,24.5,13.7,29.79,West,270,1.3,1.6,63,0.00,,,0.00,WUHU216HW,2013-02-04 12:38:00,
2013-02-04 07:43:00,24.5,13.7,29.79,WNW,293,0.4,1.3,63,0.00,,,0.00,WUHU216HW,2013-02-04 12:43:00,
2013-02-04 07:48:00,24.3,13.5,29.79,WNW,293,0.9,1.3,63,0.00,,,0.00,WUHU216HW,2013-02-04 12:48:00,
2013-02-04 07:53:00,24.3,13.8,29.79,WNW,293,0.7,1.3,64,0.00,,,0.00,WUHU216HW,2013-02-04 12:53:00,
2013-02-04 07:58:00,24.3,13.5,29.79,West,270,0.4,2.0,63,0.00,,,0.00,WUHU216HW,2013-02-04 12:58:00,
2013-02-04 08:03:00,24.5,13.7,29.79,South,180,1.3,2.7,63,0.00,,,0.00,WUHU216HW,2013-02-04 13:03:00,
2013-02-04 08:08:00,24.7,13.5,29.79,NW,315,0.4,4.0,62,0.00,,,0.00,WUHU216HW,2013-02-04 13:08:00,
2013-02-04 08:13:00,24.7,13.5,29.79,NW,315,0.9,4.0,62,0.00,,,0.00,WUHU216HW,2013-02-04 13:13:00,
2013-02-04 08:18:00,24.7,13.8,29.79,WNW,293,0.0,1.6,63,0.00,,,0.00,WUHU216HW,2013-02-04 13:18:00,
2013-02-04 08:23:00,24.8,14.0,29.79,SW,225,0.0,1.6,63,0.00,,,0.00,WUHU216HW,2013-02-04 13:23:00,
2013-02-04 08:28:00,24.8,13.7,29.79,WNW,293,1.1,2.0,62,0.00,,,0.00,WUHU216HW,2013-02-04 13:28:00,
2013-02-04 08:33:00,25.0,13.8,29.80,West,270,1.6,2.0,62,0.00,,,0.00,WUHU216HW,2013-02-04 13:33:00,
2013-02-04 08:38:00,25.2,13.6,29.80,West,270,2.2,4.0,61,0.00,,,0.00,WUHU216HW,2013-02-04 13:38:00,
2013-02-04 08:43:00,25.6,14.0,29.80,NW,315,2.2,4.0,61,0.00,,,0.00,WUHU216HW,2013-02-04 13:43:00,
2013-02-04 08:48:00,25.6,13.6,29.79,West,270,3.4,3.4,60,0.00,,,0.00,WUHU216HW,2013-02-04 13:48:00,
2013-02-04 08:53:00,25.9,14.0,29.79,NW,315,1.8,4.0,60,0.00,,,0.00,WUHU216HW,2013-02-04 13:53:00,
2013-02-04 08:58:00,26.1,13.7,29.79,NW,315,3.8,5.1,59,0.00,,,0.00,WUHU216HW,2013-02-04 13:58:00,
2013-02-04 09:03:00,26.3,13.9,29.79,West,270,2.9,5.1,59,0.00,,,0.00,WUHU216HW,2013-02-04 14:03:00,
2013-02-04 09:08:00,26.3,13.9,29.80,WNW,293,3.4,5.4,59,0.00,,,0.00,WUHU216HW,2013-02-04 14:08:00,
2013-02-04 09:13:00,26.3,13.9,29.79,WNW,293,3.8,6.3,59,0.00,,,0.00,WUHU216HW,2013-02-04 14:13:00,
2013-02-04 09:18:00,26.5,14.1,29.79,WSW,248,6.7,6.7,59,0.00,,,0.00,WUHU216HW,2013-02-04 14:18:00,
2013-02-04 09:23:00,26.5,14.1,29.80,West,270,2.5,6.7,59,0.00,,,0.00,WUHU216HW,2013-02-04 14:23:00,
2013-02-04 09:28:00,26.6,13.3,29.80,NW,315,2.2,6.7,57,0.00,,,0.00,WUHU216HW,2013-02-04 14:28:00,
2013-02-04 09:33:00,26.6,14.1,29.80,WSW,248,0.2,4.5,59,0.00,,,0.00,WUHU216HW,2013-02-04 14:33:00,
2013-02-04 09:38:00,27.0,14.1,29.80,SSW,203,0.4,3.4,58,0.00,,,0.00,WUHU216HW,2013-02-04 14:38:00,
2013-02-04 09:43:00,27.0,13.7,29.80,SW,225,0.4,2.5,57,0.00,,,0.00,WUHU216HW,2013-02-04 14:43:00,
2013-02-04 09:48:00,27.2,14.3,29.80,WNW,293,0.7,3.4,58,0.00,,,0.00,WUHU216HW,2013-02-04 14:48:00,
2013-02-04 09:53:00,27.4,13.7,29.80,NW,315,2.2,3.4,56,0.00,,,0.00,WUHU216HW,2013-02-04 14:53:00,
2013-02-04 09:58:00,27.5,14.2,29.80,WSW,248,1.1,4.7,57,0.00,,,0.00,WUHU216HW,2013-02-04 14:58:00,
2013-02-04 10:03:00,27.7,14.9,29.80,South,180,3.1,4.7,58,0.00,,,0.00,WUHU216HW,2013-02-04 15:03:00,
2013-02-04 10:08:00,28.1,14.4,29.79,SSE,158,2.0,5.4,56,0.00,,,0.00,WUHU216HW,2013-02-04 15:08:00,
2013-02-04 10:13:00,28.3,14.6,29.79,WSW,248,0.4,5.4,56,0.00,,,0.00,WUHU216HW,2013-02-04 15:13:00,
2013-02-04 10:18:00,28.4,15.1,29.79,SW,225,2.2,3.8,57,0.00,,,0.00,WUHU216HW,2013-02-04 15:18:00,
2013-02-04 10:23:00,28.6,15.8,29.79,WNW,293,0.7,3.6,58,0.00,,,0.00,WUHU216HW,2013-02-04 15:23:00,
2013-02-04 10:28:00,28.8,15.0,29.79,SSW,203,1.3,3.6,56,0.00,,,0.00,WUHU216HW,2013-02-04 15:28:00,
2013-02-04 10:33:00,29.0,14.8,29.78,WSW,248,2.0,2.5,55,0.00,,,0.00,WUHU216HW,2013-02-04 15:33:00,
2013-02-04 10:38:00,29.2,15.4,29.78,North,0,1.1,5.1,56,0.00,,,0.00,WUHU216HW,2013-02-04 15:38:00,
2013-02-04 10:43:00,29.5,14.9,29.78,South,180,1.8,5.1,54,0.00,,,0.00,WUHU216HW,2013-02-04 15:43:00,
2013-02-04 10:48:00,29.5,14.9,29.78,WNW,293,1.1,3.4,54,0.00,,,0.00,WUHU216HW,2013-02-04 15:48:00,
2013-02-04 10:53:00,29.9,15.6,29.78,WNW,293,0.2,3.4,55,0.00,,,0.00,WUHU216HW,2013-02-04 15:53:00,
2013-02-04 10:58:00,30.2,15.9,29.78,West,270,0.7,3.1,55,0.00,,,0.00,WUHU216HW,2013-02-04 15:58:00,
2013-02-04 11:03:00,30.6,15.8,29.77,West,270,1.3,3.6,54,0.00,,,0.00,WUHU216HW,2013-02-04 16:03:00,
2013-02-04 11:08:00,30.8,15.2,29.77,NW,315,2.7,3.6,52,0.00,,,0.00,WUHU216HW,2013-02-04 16:08:00,
2013-02-04 11:13:00,31.0,15.4,29.77,West,270,3.4,4.9,52,0.00,,,0.00,WUHU216HW,2013-02-04 16:13:00,
2013-02-04 11:18:00,31.1,15.9,29.77,South,180,2.2,4.9,53,0.00,,,0.00,WUHU216HW,2013-02-04 16:18:00,
2013-02-04 11:23:00,31.3,15.7,29.75,SW,225,1.1,2.9,52,0.00,,,0.00,WUHU216HW,2013-02-04 16:23:00,
2013-02-04 11:28:00,31.5,15.8,29.76,South,180,1.1,3.6,52,0.00,,,0.00,WUHU216HW,2013-02-04 16:28:00,
2013-02-04 11:33:00,31.9,15.8,29.75,SSE,158,2.0,4.5,51,0.00,,,0.00,WUHU216HW,2013-02-04 16:33:00,
2013-02-04 11:38:00,32.0,15.9,29.76,North,0,1.6,4.5,51,0.00,,,0.00,WUHU216HW,2013-02-04 16:38:00,
2013-02-04 11:43:00,32.2,15.7,29.75,SW,225,1.8,2.5,50,0.00,,,0.00,WUHU216HW,2013-02-04 16:43:00,
2013-02-04 11:48:00,32.4,15.9,29.74,NW,315,0.4,2.5,50,0.00,,,0.00,WUHU216HW,2013-02-04 16:48:00,
2013-02-04 11:53:00,32.8,16.6,29.74,SSW,203,1.6,4.0,51,0.00,,,0.00,WUHU216HW,2013-02-04 16:53:00,
2013-02-04 11:58:00,32.8,15.7,29.74,SSW,203,1.8,4.0,49,0.00,,,0.00,WUHU216HW,2013-02-04 16:58:00,
2013-02-04 12:03:00,32.8,16.1,29.74,WNW,293,1.6,4.0,50,0.00,,,0.00,WUHU216HW,2013-02-04 17:03:00,
2013-02-04 12:08:00,33.1,15.9,29.74,SSE,158,0.4,3.4,49,0.00,,,0.00,WUHU216HW,2013-02-04 17:08:00,
2013-02-04 12:13:00,33.1,15.9,29.74,SSW,203,1.8,3.8,49,0.00,,,0.00,WUHU216HW,2013-02-04 17:13:00,
2013-02-04 12:18:00,33.5,16.7,29.74,NW,315,2.5,3.8,50,0.00,,,0.00,WUHU216HW,2013-02-04 17:18:00,
2013-02-04 12:23:00,34.0,16.7,29.74,SW,225,1.8,3.1,49,0.00,,,0.00,WUHU216HW,2013-02-04 17:23:00,
2013-02-04 12:28:00,34.2,17.9,29.73,SE,135,1.3,2.7,51,0.00,,,0.00,WUHU216HW,2013-02-04 17:28:00,
2013-02-04 12:33:00,34.7,18.0,29.73,SSW,203,1.8,3.6,50,0.00,,,0.00,WUHU216HW,2013-02-04 17:33:00,
2013-02-04 12:38:00,34.4,17.6,29.73,SE,135,1.3,3.6,50,0.00,,,0.00,WUHU216HW,2013-02-04 17:38:00,
2013-02-04 12:43:00,34.2,17.5,29.72,SSE,158,1.1,3.1,50,0.00,,,0.00,WUHU216HW,2013-02-04 17:43:00,
2013-02-04 12:48:00,34.0,17.7,29.72,East,90,1.6,2.0,51,0.00,,,0.00,WUHU216HW,2013-02-04 17:48:00,
2013-02-04 12:53:00,34.2,17.9,29.72,South,180,0.9,2.5,51,0.00,,,0.00,WUHU216HW,2013-02-04 17:53:00,
2013-02-04 12:58:00,34.4,18.1,29.71,South,180,2.0,3.4,51,0.00,,,0.00,WUHU216HW,2013-02-04 17:58:00,
2013-02-04 13:03:00,34.7,17.0,29.72,South,180,4.5,4.5,48,0.00,,,0.00,WUHU216HW,2013-02-04 18:03:00,
2013-02-04 13:08:00,34.7,17.0,29.71,South,180,3.4,4.7,48,0.00,,,0.00,WUHU216HW,2013-02-04 18:08:00,
2013-02-04 13:13:00,34.9,17.6,29.71,SW,225,1.8,4.9,49,0.00,,,0.00,WUHU216HW,2013-02-04 18:13:00,
2013-02-04 13:18:00,35.5,18.7,29.70,South,180,6.3,6.3,50,0.00,,,0.00,WUHU216HW,2013-02-04 18:18:00,
2013-02-04 13:23:00,36.4,19.5,29.70,South,180,1.8,6.3,50,0.00,,,0.00,WUHU216HW,2013-02-04 18:23:00,
2013-02-04 13:28:00,36.4,17.5,29.69,SSW,203,2.7,6.3,46,0.00,,,0.00,WUHU216HW,2013-02-04 18:28:00,
2013-02-04 13:33:00,36.0,17.6,29.69,SSW,203,2.5,4.3,47,0.00,,,0.00,WUHU216HW,2013-02-04 18:33:00,
2013-02-04 13:38:00,36.0,18.7,29.69,SSE,158,2.0,4.0,49,0.00,,,0.00,WUHU216HW,2013-02-04 18:38:00,
2013-02-04 13:43:00,35.8,18.5,29.69,SSW,203,1.1,2.9,49,0.00,,,0.00,WUHU216HW,2013-02-04 18:43:00,
2013-02-04 13:48:00,35.6,18.4,29.69,SSW,203,1.6,2.5,49,0.00,,,0.00,WUHU216HW,2013-02-04 18:48:00,
2013-02-04 13:53:00,35.6,17.8,29.69,SSE,158,1.3,4.0,48,0.00,,,0.00,WUHU216HW,2013-02-04 18:53:00,
2013-02-04 13:58:00,35.6,17.4,29.69,South,180,1.3,4.0,47,0.00,,,0.00,WUHU216HW,2013-02-04 18:58:00,
2013-02-04 14:03:00,35.8,18.0,29.68,South,180,3.1,3.1,48,0.00,,,0.00,WUHU216HW,2013-02-04 19:03:00,
2013-02-04 14:08:00,36.0,18.2,29.68,SSE,158,2.2,3.1,48,0.00,,,0.00,WUHU216HW,2013-02-04 19:08:00,
2013-02-04 14:13:00,35.8,18.5,29.68,ESE,113,1.3,3.1,49,0.00,,,0.00,WUHU216HW,2013-02-04 19:13:00,
2013-02-04 14:18:00,35.8,17.5,29.68,SSW,203,2.5,3.4,47,0.00,,,0.00,WUHU216HW,2013-02-04 19:18:00,
2013-02-04 14:23:00,35.6,17.8,29.68,South,180,0.7,3.4,48,0.00,,,0.00,WUHU216HW,2013-02-04 19:23:00,
2013-02-04 14:28:00,35.6,18.4,29.67,SE,135,0.4,3.1,49,0.00,,,0.00,WUHU216HW,2013-02-04 19:28:00,
2013-02-04 14:33:00,35.6,18.4,29.67,SW,225,1.8,3.1,49,0.00,,,0.00,WUHU216HW,2013-02-04 19:33:00,
2013-02-04 14:38:00,35.6,18.4,29.67,SE,135,1.1,3.1,49,0.00,,,0.00,WUHU216HW,2013-02-04 19:38:00,
2013-02-04 14:43:00,35.6,18.4,29.67,South,180,0.7,1.8,49,0.00,,,0.00,WUHU216HW,2013-02-04 19:43:00,
2013-02-04 14:48:00,35.8,19.1,29.66,SW,225,1.3,1.8,50,0.00,,,0.00,WUHU216HW,2013-02-04 19:48:00,
2013-02-04 14:53:00,35.8,18.5,29.66,ESE,113,0.7,1.3,49,0.00,,,0.00,WUHU216HW,2013-02-04 19:53:00,
2013-02-04 14:58:00,36.2,18.9,29.66,SSE,158,0.9,2.0,49,0.00,,,0.00,WUHU216HW,2013-02-04 19:58:00,
2013-02-04 15:03:00,36.2,18.4,29.66,WNW,293,0.4,2.0,48,0.00,,,0.00,WUHU216HW,2013-02-04 20:03:00,
2013-02-04 15:08:00,36.4,18.6,29.66,NNW,338,0.4,1.6,48,0.00,,,0.00,WUHU216HW,2013-02-04 20:08:00,
2013-02-04 15:13:00,36.4,19.0,29.66,ESE,113,0.2,1.3,49,0.00,,,0.00,WUHU216HW,2013-02-04 20:13:00,
2013-02-04 15:18:00,36.4,19.0,29.66,SW,225,0.0,1.1,49,0.00,,,0.00,WUHU216HW,2013-02-04 20:18:00,
2013-02-04 15:23:00,36.4,19.0,29.66,East,90,0.0,1.1,49,0.00,,,0.00,WUHU216HW,2013-02-04 20:23:00,
2013-02-04 15:28:00,36.2,18.9,29.66,WNW,293,0.4,2.5,49,0.00,,,0.00,WUHU216HW,2013-02-04 20:28:00,
2013-02-04 15:33:00,36.2,19.4,29.66,North,0,0.2,2.5,50,0.00,,,0.00,WUHU216HW,2013-02-04 20:33:00,
2013-02-04 15:38:00,36.2,19.4,29.66,NNW,338,0.4,0.9,50,0.00,,,0.00,WUHU216HW,2013-02-04 20:38:00,
2013-02-04 15:43:00,36.2,19.4,29.67,SW,225,0.0,0.7,50,0.00,,,0.00,WUHU216HW,2013-02-04 20:43:00,
2013-02-04 15:48:00,36.2,19.4,29.67,South,180,0.0,0.9,50,0.00,,,0.00,WUHU216HW,2013-02-04 20:48:00,
2013-02-04 15:53:00,36.4,19.5,29.67,South,180,0.0,0.9,50,0.00,,,0.00,WUHU216HW,2013-02-04 20:53:00,
2013-02-04 15:58:00,36.2,19.4,29.66,WNW,293,0.9,1.8,50,0.00,,,0.00,WUHU216HW,2013-02-04 20:58:00,
2013-02-04 16:03:00,36.2,20.3,29.67,NW,315,0.2,3.4,52,0.00,,,0.00,WUHU216HW,2013-02-04 21:03:00,
2013-02-04 16:08:00,36.2,20.7,29.67,WNW,293,1.1,3.4,53,0.00,,,0.00,WUHU216HW,2013-02-04 21:08:00,
2013-02-04 16:13:00,36.0,20.1,29.66,West,270,0.4,1.8,52,0.00,,,0.00,WUHU216HW,2013-02-04 21:13:00,
2013-02-04 16:18:00,35.8,20.3,29.66,SSE,158,0.4,1.8,53,0.00,,,0.00,WUHU216HW,2013-02-04 21:18:00,
2013-02-04 16:23:00,35.8,20.3,29.66,West,270,1.1,1.6,53,0.00,,,0.00,WUHU216HW,2013-02-04 21:23:00,
2013-02-04 16:28:00,35.8,20.8,29.66,WNW,293,0.0,1.3,54,0.00,,,0.00,WUHU216HW,2013-02-04 21:28:00,
2013-02-04 16:33:00,35.6,20.6,29.66,WNW,293,0.0,1.1,54,0.00,,,0.00,WUHU216HW,2013-02-04 21:33:00,
2013-02-04 16:38:00,35.8,20.8,29.66,East,90,0.2,0.7,54,0.00,,,0.00,WUHU216HW,2013-02-04 21:38:00,
2013-02-04 16:43:00,35.8,20.8,29.66,NE,45,0.0,0.9,54,0.00,,,0.00,WUHU216HW,2013-02-04 21:43:00,
2013-02-04 16:48:00,35.6,20.6,29.66,North,0,0.0,0.9,54,0.00,,,0.00,WUHU216HW,2013-02-04 21:48:00,
2013-02-04 16:53:00,35.6,21.1,29.65,North,0,0.0,0.4,55,0.00,,,0.00,WUHU216HW,2013-02-04 21:53:00,
2013-02-04 16:58:00,35.6,21.1,29.65,North,0,0.0,0.4,55,0.00,,,0.00,WUHU216HW,2013-02-04 21:58:00,
2013-02-04 17:03:00,35.5,21.3,29.65,North,0,0.2,0.4,56,0.00,,,0.00,WUHU216HW,2013-02-04 22:03:00,
2013-02-04 17:08:00,35.5,21.3,29.65,SE,135,0.0,1.1,56,0.00,,,0.00,WUHU216HW,2013-02-04 22:08:00,
2013-02-04 17:13:00,35.5,21.8,29.65,NNE,23,0.0,1.6,57,0.00,,,0.00,WUHU216HW,2013-02-04 22:13:00,
2013-02-04 17:18:00,35.5,21.8,29.64,WSW,248,0.0,1.6,57,0.00,,,0.00,WUHU216HW,2013-02-04 22:18:00,
2013-02-04 17:23:00,35.5,21.8,29.64,SE,135,0.4,0.7,57,0.00,,,0.00,WUHU216HW,2013-02-04 22:23:00,
2013-02-04 17:28:00,35.5,22.1,29.64,SSW,203,0.9,1.1,58,0.00,,,0.00,WUHU216HW,2013-02-04 22:28:00,
2013-02-04 17:33:00,35.3,22.0,29.64,WNW,293,0.0,1.1,58,0.00,,,0.00,WUHU216HW,2013-02-04 22:33:00,
2013-02-04 17:38:00,35.3,22.0,29.64,ENE,68,0.0,0.9,58,0.00,,,0.00,WUHU216HW,2013-02-04 22:38:00,
2013-02-04 17:43:00,35.3,22.0,29.64,ESE,113,0.0,0.4,58,0.00,,,0.00,WUHU216HW,2013-02-04 22:43:00,
2013-02-04 17:48:00,35.3,22.0,29.64,SE,135,0.0,0.2,58,0.00,,,0.00,WUHU216HW,2013-02-04 22:48:00,
2013-02-04 17:53:00,35.1,21.8,29.65,SE,135,1.8,1.8,58,0.00,,,0.00,WUHU216HW,2013-02-04 22:53:00,
2013-02-04 17:58:00,34.9,22.5,29.65,SSW,203,0.0,1.8,60,0.00,,,0.00,WUHU216HW,2013-02-04 22:58:00,
2013-02-04 18:03:00,34.9,22.5,29.65,South,180,0.4,1.8,60,0.00,,,0.00,WUHU216HW,2013-02-04 23:03:00,
2013-02-04 18:08:00,34.7,23.0,29.65,NW,315,0.9,1.1,62,0.00,,,0.00,WUHU216HW,2013-02-04 23:08:00,
2013-02-04 18:13:00,34.6,23.6,29.65,South,180,0.0,2.5,64,0.00,,,0.00,WUHU216HW,2013-02-04 23:13:00,
2013-02-04 18:18:00,34.6,24.3,29.64,SSE,158,1.3,2.5,66,0.00,,,0.00,WUHU216HW,2013-02-04 23:18:00,
2013-02-04 18:23:00,34.6,23.9,29.64,SSE,158,0.2,2.0,65,0.00,,,0.00,WUHU216HW,2013-02-04 23:23:00,
2013-02-04 18:28:00,34.6,23.9,29.65,WSW,248,0.0,1.3,65,0.00,,,0.00,WUHU216HW,2013-02-04 23:28:00,
2013-02-04 18:33:00,34.6,24.7,29.65,SSW,203,0.0,2.0,67,0.00,,,0.00,WUHU216HW,2013-02-04 23:33:00,
2013-02-04 18:38:00,34.4,24.5,29.65,SSE,158,1.6,2.0,67,0.00,,,0.00,WUHU216HW,2013-02-04 23:38:00,
2013-02-04 18:43:00,34.4,24.8,29.64,South,180,0.2,1.8,68,0.00,,,0.00,WUHU216HW,2013-02-04 23:43:00,
2013-02-04 18:48:00,34.2,25.4,29.64,SSW,203,1.3,2.0,70,0.00,,,0.00,WUHU216HW,2013-02-04 23:48:00,
2013-02-04 18:53:00,34.0,25.2,29.64,South,180,0.4,2.0,70,0.00,,,0.00,WUHU216HW,2013-02-04 23:53:00,
2013-02-04 18:58:00,33.8,25.4,29.65,SSW,203,0.7,2.0,71,0.00,,,0.00,WUHU216HW,2013-02-04 23:58:00,
2013-02-04 19:03:00,33.7,24.8,29.65,South,180,0.0,2.0,70,0.00,,,0.00,WUHU216HW,2013-02-05 00:03:00,
2013-02-04 19:08:00,33.7,24.8,29.64,SE,135,0.0,1.8,70,0.00,,,0.00,WUHU216HW,2013-02-05 00:08:00,
2013-02-04 19:13:00,33.7,24.8,29.64,SE,135,0.0,0.4,70,0.00,,,0.00,WUHU216HW,2013-02-05 00:13:00,
2013-02-04 19:18:00,33.7,24.8,29.64,East,90,0.2,0.4,70,0.00,,,0.00,WUHU216HW,2013-02-05 00:18:00,
2013-02-04 19:23:00,33.7,24.8,29.65,East,90,0.0,0.4,70,0.00,,,0.00,WUHU216HW,2013-02-05 00:23:00,
2013-02-04 19:28:00,33.7,24.5,29.65,NE,45,0.0,0.7,69,0.00,,,0.00,WUHU216HW,2013-02-05 00:28:00,
2013-02-04 19:33:00,33.8,24.7,29.64,South,180,0.4,1.3,69,0.00,,,0.00,WUHU216HW,2013-02-05 00:33:00,
2013-02-04 19:38:00,33.7,24.8,29.64,SE,135,0.0,1.3,70,0.00,,,0.00,WUHU216HW,2013-02-05 00:38:00,
2013-02-04 19:43:00,33.7,24.5,29.65,NW,315,0.0,1.1,69,0.00,,,0.00,WUHU216HW,2013-02-05 00:43:00,
2013-02-04 19:48:00,33.8,24.7,29.64,SSE,158,0.2,1.3,69,0.00,,,0.00,WUHU216HW,2013-02-05 00:48:00,
2013-02-04 19:53:00,33.7,24.8,29.64,South,180,0.2,1.3,70,0.00,,,0.00,WUHU216HW,2013-02-05 00:53:00,
2013-02-04 19:58:00,33.7,24.8,29.64,SE,135,0.2,1.1,70,0.00,,,0.00,WUHU216HW,2013-02-05 00:58:00,
2013-02-04 20:03:00,33.8,24.7,29.64,SE,135,0.0,1.1,69,0.00,,,0.00,WUHU216HW,2013-02-05 01:03:00,
2013-02-04 20:08:00,33.7,24.5,29.64,ENE,68,0.0,0.7,69,0.00,,,0.00,WUHU216HW,2013-02-05 01:08:00,
2013-02-04 20:13:00,33.7,24.5,29.64,North,0,0.0,0.2,69,0.00,,,0.00,WUHU216HW,2013-02-05 01:13:00,
2013-02-04 20:18:00,33.7,24.8,29.64,NE,45,0.0,0.4,70,0.00,,,0.00,WUHU216HW,2013-02-05 01:18:00,
2013-02-04 20:23:00,33.5,24.7,29.64,SSE,158,0.4,1.1,70,0.00,,,0.00,WUHU216HW,2013-02-05 01:23:00,
2013-02-04 20:28:00,33.5,24.7,29.64,South,180,0.2,1.1,70,0.00,,,0.00,WUHU216HW,2013-02-05 01:28:00,
2013-02-04 20:33:00,33.5,24.7,29.64,NNE,23,0.0,0.7,70,0.00,,,0.00,WUHU216HW,2013-02-05 01:33:00,
2013-02-04 20:38:00,33.3,24.6,29.64,NNE,23,0.0,0.2,70,0.00,,,0.00,WUHU216HW,2013-02-05 01:38:00,
2013-02-04 20:43:00,33.1,24.4,29.64,NNE,23,0.0,0.2,70,0.00,,,0.00,WUHU216HW,2013-02-05 01:43:00,
2013-02-04 20:48:00,33.1,24.7,29.64,NNE,23,0.0,0.2,71,0.00,,,0.00,WUHU216HW,2013-02-05 01:48:00,
2013-02-04 20:53:00,33.1,24.7,29.64,NNE,23,0.0,0.0,71,0.00,,,0.00,WUHU216HW,2013-02-05 01:53:00,
2013-02-04 20:58:00,32.8,24.7,29.65,NNE,23,0.0,0.0,72,0.00,,,0.00,WUHU216HW,2013-02-05 01:58:00,
2013-02-04 21:03:00,32.8,25.0,29.64,NNE,23,0.0,0.0,73,0.00,,,0.00,WUHU216HW,2013-02-05 02:03:00,
2013-02-04 21:08:00,32.6,24.8,29.64,NNE,23,0.0,0.0,73,0.00,,,0.00,WUHU216HW,2013-02-05 02:08:00,
2013-02-04 21:13:00,32.4,25.0,29.64,NNE,23,0.0,0.0,74,0.00,,,0.00,WUHU216HW,2013-02-05 02:13:00,
2013-02-04 21:18:00,32.4,25.0,29.64,NNE,23,0.0,0.0,74,0.00,,,0.00,WUHU216HW,2013-02-05 02:18:00,
2013-02-04 21:23:00,32.4,25.0,29.64,NNE,23,0.0,0.0,74,0.00,,,0.00,WUHU216HW,2013-02-05 02:23:00,
2013-02-04 21:28:00,32.4,25.4,29.64,NNE,23,0.0,0.0,75,0.00,,,0.00,WUHU216HW,2013-02-05 02:28:00,
2013-02-04 21:33:00,32.2,25.2,29.64,NNE,23,0.0,0.0,75,0.00,,,0.00,WUHU216HW,2013-02-05 02:33:00,
2013-02-04 21:38:00,32.2,25.5,29.64,NNE,23,0.0,0.0,76,0.00,,,0.00,WUHU216HW,2013-02-05 02:38:00,
2013-02-04 21:43:00,32.0,25.4,29.64,NNE,23,0.0,0.0,76,0.00,,,0.00,WUHU216HW,2013-02-05 02:43:00,
2013-02-04 21:48:00,32.0,25.4,29.63,NW,315,0.0,0.7,76,0.00,,,0.00,WUHU216HW,2013-02-05 02:48:00,
2013-02-04 21:53:00,32.0,25.4,29.63,NW,315,0.0,0.7,76,0.00,,,0.00,WUHU216HW,2013-02-05 02:53:00,
2013-02-04 21:58:00,32.0,25.7,29.63,NW,315,0.0,0.2,77,0.00,,,0.00,WUHU216HW,2013-02-05 02:58:00,
2013-02-04 22:03:00,32.0,25.7,29.63,NNW,338,0.0,0.2,77,0.00,,,0.00,WUHU216HW,2013-02-05 03:03:00,
2013-02-04 22:08:00,31.9,25.5,29.62,NNW,338,0.0,0.2,77,0.00,,,0.00,WUHU216HW,2013-02-05 03:08:00,
2013-02-04 22:13:00,31.9,25.5,29.62,NNW,338,0.0,0.2,77,0.00,,,0.00,WUHU216HW,2013-02-05 03:13:00,
2013-02-04 22:18:00,31.9,25.8,29.62,NNW,338,0.0,0.2,78,0.00,,,0.00,WUHU216HW,2013-02-05 03:18:00,
2013-02-04 22:24:00,31.9,25.8,29.62,NNW,338,0.0,0.2,78,0.00,,,0.00,WUHU216HW,2013-02-05 03:24:00,
2013-02-04 22:29:00,31.7,25.7,29.62,NNW,338,0.0,0.2,78,0.00,,,0.00,WUHU216HW,2013-02-05 03:29:00,
2013-02-04 22:34:00,31.7,25.7,29.62,NNE,23,0.0,0.2,78,0.00,,,0.00,WUHU216HW,2013-02-05 03:34:00,
2013-02-04 22:39:00,31.7,25.7,29.62,NNE,23,0.0,0.2,78,0.00,,,0.00,WUHU216HW,2013-02-05 03:39:00,
2013-02-04 22:44:00,31.7,25.7,29.61,NE,45,0.4,0.4,78,0.00,,,0.00,WUHU216HW,2013-02-05 03:44:00,
2013-02-04 22:49:00,31.7,25.7,29.61,North,0,0.0,0.4,78,0.00,,,0.00,WUHU216HW,2013-02-05 03:49:00,
2013-02-04 22:54:00,31.7,25.7,29.62,North,0,0.0,0.4,78,0.00,,,0.00,WUHU216HW,2013-02-05 03:54:00,
2013-02-04 22:59:00,31.7,25.7,29.62,North,0,0.0,0.2,78,0.00,,,0.00,WUHU216HW,2013-02-05 03:59:00,